Location: Ar Ranvel
(48.3000°N, 4.8833°W)
Time: 10:48:15
(UTC+00:00)

DNEPR-1 R/B - Pass Details

Date: 16 June 2021
Orbit: 588 x 1334 km, 64.6° (Epoch: 27 July)

Event Time Altitude Azimuth Distance (km) Brightness Sun altitude
Rises 22:41:57 0° 319° (NW) 2,842 8.5 -15.0°
Reaches altitude 10° 22:44:11 10° 317° (NW) 1,923 7.2 -15.1°
Maximum altitude 22:48:23 69° 235° (SW) 643 3.5 -15.4°
Enters shadow 22:50:35 28° 158° (SSE) 1,155 4.3 -15.5°
